User: anonymous
Location: Unspecified
(0.0000°N, 0.0000°E)
Time: 03:51:52
(UTC+02:00)
Language:

ARIANE 5 R/B - Orbit

View from above orbital plane
View from above orbital plane
View from above satellite
View from above satellite

Ground track
Ground track

The orbit data is extracted from the following two-line orbital elements,

1 28787U 05028B   14243.48985556  .00000006  00000-0  45503-3 0  5252
2 28787 007.0032 066.5137 7163639 152.6551 257.5136 02.26537613 74975
Epoch (UTC): 31 August 2014 11:45:23
Eccentricity: 0.7163639
inclination: 7.0032°
perigee height: 568 km
apogee height: 35654 km
right ascension of ascending node: 66.5137°
argument of perigee: 152.6551°
revolutions per day: 2.26537613
mean anomaly at epoch: 257.5136°
orbit number at epoch: 7497

The dashed part of the orbit path shows where the satellite is in the earth's shadow,  

DLR